User: anonymous   Login
Location: Maiden_LMO
(35.5760°N, 81.2120°W)
Time: 04:33:47
(UTC-04:00)
Language:

Cosmos 2278 Rocket - Orbit

View from above orbital plane
View from above orbital plane
View from above satellite
View from above satellite

Ground track
Ground track

The orbit data is extracted from the following two-line orbital elements,

1 23088U 94023B   16209.50242200  .00000102  00000-0  78071-4 0  9992
2 23088  70.9976 243.5181 0005216 246.2487 113.8089 14.14640288149622
Epoch (UTC): 27 July 2016 12:03:29
Eccentricity: 0.0005216
inclination: 70.9976°
perigee height: 840 km
apogee height: 847 km
right ascension of ascending node: 243.5181°
argument of perigee: 246.2487°
revolutions per day: 14.14640288
mean anomaly at epoch: 113.8089°
orbit number at epoch: 14962

The dashed part of the orbit path shows where the satellite is in the earth's shadow,  

DLR